Lihue — WTST — position and weather

sailwx.info

Track history (hours):
 
Tides and Currents Weather Stations Pressure Air Temp Water Temp Dewpoint Dewpoint Depression Visibility Wind Speed Wind Dir Waves Ship Positions

Lihue

Owner: MATSON NAVIGATION CO, Tacoma, WA. More information available from US FCC via Universal Licensing System and Coast Guard Vessel Documentation Center.

Last reported at 2017-Nov-24 15:19 UTC. Time now 2017-Nov-24 18:21 UTC.
Position N 33°45' W 118°13'.

Type: Cargo ship. MMSI: 368074000.

Date/timePositionNaut miles runAvg speedWind from/ knotsBaromVisibWave heightAir tempDewpointWater temp
2017-Nov-24 15:19N 33°45' W 118°13'3 5.7
2017-Nov-24 14:51N 33°43' W 118°11'3 8.4
2017-Nov-24 14:30N 33°40' W 118°11'3 7.1
2017-Nov-24 14:01N 33°37' W 118°12'3 5.2
2017-Nov-24 13:30N 33°36' W 118°15'3 5.1
2017-Nov-24 13:00N 33°36' W 118°18'3 5.2
2017-Nov-24 12:30N 33°36' W 118°21'3 5.3
2017-Nov-24 11:58N 33°38' W 118°24'2 5.0
2017-Nov-24 11:29N 33°39' W 118°27'3 5.1
2017-Nov-24 10:59N 33°40' W 118°29'2 5.1
2017-Nov-24 10:31N 33°41' W 118°32'3 5.5
2017-Nov-24 10:00N 33°42' W 118°35'4 8.6
2017-Nov-24 09:30N 33°45' W 118°39'5 9.9
2017-Nov-24 09:01N 33°47' W 118°44'5 9.8
2017-Nov-24 08:31N 33°50' W 118°50'5 9.8
2017-Nov-24 08:01N 33°52' W 118°55'5 9.2
2017-Nov-24 07:31N 33°54' W 118°60'5 9.0
2017-Nov-24 07:01N 33°56' W 119°04'5 9.1
2017-Nov-24 06:30N 33°59' W 119°09'5 8.9
2017-Nov-24 05:58N 34°01' W 119°14'4 9.2
2017-Nov-24 05:30N 34°02' W 119°19'5 9.3
2017-Nov-24 04:58N 34°04' W 119°25'5 9.8
2017-Nov-24 04:30N 34°05' W 119°30'510.2
2017-Nov-24 03:59N 34°06' W 119°36'510.2
2017-Nov-24 03:30N 34°08' W 119°42'510.9
2017-Nov-24 03:00N 34°09' W 119°48'611.6
2017-Nov-24 02:30N 34°11' W 119°55'713.5
2017-Nov-24 01:58N 34°13' W 120°03'1020.0
2017-Nov-24 01:29N 34°16' W 120°14'1020.7
2017-Nov-24 01:00N 34°18' W 120°26'1020.2
2017-Nov-24 00:30N 34°21' W 120°38'1120.8
2017-Nov-24 00:00N 34°24' W 120°50'1020.6
2017-Nov-23 23:31N 34°32' W 120°57'1121.9
2017-Nov-23 23:01N 34°42' W 121°04'1121.4
2017-Nov-23 22:30N 34°51' W 121°11'1121.3
2017-Nov-23 22:01N 34°60' W 121°17'1121.2
2017-Nov-23 21:30N 35°10' W 121°23'1121.2
2017-Nov-23 21:01N 35°18' W 121°30'1121.2
2017-Nov-23 20:31N 35°28' W 121°36'1121.2
2017-Nov-23 20:01N 35°37' W 121°42'1121.2
2017-Nov-23 19:30N 35°46' W 121°49'1021.0
2017-Nov-23 19:01N 35°55' W 121°55'1121.0
2017-Nov-23 18:31N 36°04' W 122°02'1121.1
2017-Nov-23 18:00N 36°13' W 122°09'1121.5
2017-Nov-23 17:31N 36°22' W 122°16'1121.4
2017-Nov-23 17:01N 36°32' W 122°22'1121.4
2017-Nov-23 16:31N 36°41' W 122°29'1121.4
2017-Nov-23 16:00N 36°51' W 122°34'1221.5
2017-Nov-23 15:27N 37°03' W 122°38'921.3
2017-Nov-23 15:00N 37°12' W 122°41'1021.0
2017-Nov-23 14:31N 37°22' W 122°44'1121.1
2017-Nov-23 14:01N 37°32' W 122°44'1020.4
2017-Nov-23 13:31N 37°42' W 122°42'612.8
2017-Nov-23 13:00N 37°47' W 122°36'816.0
2017-Nov-23 12:30N 37°50' W 122°27'612.2
2017-Nov-23 12:00N 37°48' W 122°20'1 2.7
2017-Nov-23 11:30N 37°48' W 122°18'0 0.0
2017-Nov-23 10:58N 37°48' W 122°18'0 0.0
2017-Nov-23 10:25N 37°48' W 122°18'0 0.0
2017-Nov-23 09:58N 37°48' W 122°18'0 0.0
2017-Nov-23 09:29N 37°48' W 122°18'0 0.0
2017-Nov-23 08:59N 37°48' W 122°18'0 0.0
2017-Nov-23 08:29N 37°48' W 122°18'0 0.0
2017-Nov-23 08:00N 37°48' W 122°18'0 0.0
2017-Nov-23 07:30N 37°48' W 122°18'0 0.0
2017-Nov-23 07:00N 37°48' W 122°18'0 0.0
2017-Nov-23 06:28N 37°48' W 122°18'0 0.0
2017-Nov-23 05:58N 37°48' W 122°18'0 0.0
2017-Nov-23 05:28N 37°48' W 122°18'0 0.0
2017-Nov-23 04:59N 37°48' W 122°18'0 0.0
2017-Nov-23 04:29N 37°48' W 122°18'0 0.0
2017-Nov-23 03:59N 37°48' W 122°18'0 0.0
2017-Nov-23 03:30N 37°48' W 122°18'0 0.0
2017-Nov-23 03:00N 37°48' W 122°18'0 0.0
2017-Nov-23 02:30N 37°48' W 122°18'0 0.0
2017-Nov-23 01:58N 37°48' W 122°18'0 0.0
2017-Nov-23 01:28N 37°48' W 122°18'0 0.0
2017-Nov-23 00:58N 37°48' W 122°18'0 0.0
2017-Nov-23 00:26N 37°48' W 122°18'0 0.0
2017-Nov-22 23:59N 37°48' W 122°18'0 0.0
2017-Nov-22 23:29N 37°48' W 122°18'0 0.0
2017-Nov-22 23:00N 37°48' W 122°18'0 0.0
2017-Nov-22 22:30N 37°48' W 122°18'0 0.0
2017-Nov-22 22:00N 37°48' W 122°18'0 0.0
2017-Nov-22 21:28N 37°48' W 122°18'0 0.0
2017-Nov-22 20:58N 37°48' W 122°18'0 0.0
2017-Nov-22 20:28N 37°48' W 122°18'0 0.0
2017-Nov-22 19:59N 37°48' W 122°18'0 0.0
2017-Nov-22 19:29N 37°48' W 122°18'  
Track history (hours):
 
Tides and Currents Weather Stations Pressure Air Temp Water Temp Dewpoint Dewpoint Depression Visibility Wind Speed Wind Dir Waves Ship Positions

Lihue

Owner: MATSON NAVIGATION CO, Tacoma, WA. More information available from US FCC via Universal Licensing System and Coast Guard Vessel Documentation Center.

Last reported at 2017-Nov-24 15:19 UTC. Time now 2017-Nov-24 18:21 UTC.
Position N 33°45' W 118°13'.

Type: Cargo ship. MMSI: 368074000.

Date/timePositionNaut miles runAvg speedWind from/ knotsBaromVisibWave heightAir tempDewpointWater temp
2017-Nov-24 15:19N 33°45' W 118°13'3 5.7
2017-Nov-24 14:51N 33°43' W 118°11'3 8.4
2017-Nov-24 14:30N 33°40' W 118°11'3 7.1
2017-Nov-24 14:01N 33°37' W 118°12'3 5.2
2017-Nov-24 13:30N 33°36' W 118°15'3 5.1
2017-Nov-24 13:00N 33°36' W 118°18'3 5.2
2017-Nov-24 12:30N 33°36' W 118°21'3 5.3
2017-Nov-24 11:58N 33°38' W 118°24'2 5.0
2017-Nov-24 11:29N 33°39' W 118°27'3 5.1
2017-Nov-24 10:59N 33°40' W 118°29'2 5.1
2017-Nov-24 10:31N 33°41' W 118°32'3 5.5
2017-Nov-24 10:00N 33°42' W 118°35'4 8.6
2017-Nov-24 09:30N 33°45' W 118°39'5 9.9
2017-Nov-24 09:01N 33°47' W 118°44'5 9.8
2017-Nov-24 08:31N 33°50' W 118°50'5 9.8
2017-Nov-24 08:01N 33°52' W 118°55'5 9.2
2017-Nov-24 07:31N 33°54' W 118°60'5 9.0
2017-Nov-24 07:01N 33°56' W 119°04'5 9.1
2017-Nov-24 06:30N 33°59' W 119°09'5 8.9
2017-Nov-24 05:58N 34°01' W 119°14'4 9.2
2017-Nov-24 05:30N 34°02' W 119°19'5 9.3
2017-Nov-24 04:58N 34°04' W 119°25'5 9.8
2017-Nov-24 04:30N 34°05' W 119°30'510.2
2017-Nov-24 03:59N 34°06' W 119°36'510.2
2017-Nov-24 03:30N 34°08' W 119°42'510.9
2017-Nov-24 03:00N 34°09' W 119°48'611.6
2017-Nov-24 02:30N 34°11' W 119°55'713.5
2017-Nov-24 01:58N 34°13' W 120°03'1020.0
2017-Nov-24 01:29N 34°16' W 120°14'1020.7
2017-Nov-24 01:00N 34°18' W 120°26'1020.2
2017-Nov-24 00:30N 34°21' W 120°38'1120.8
2017-Nov-24 00:00N 34°24' W 120°50'1020.6
2017-Nov-23 23:31N 34°32' W 120°57'1121.9
2017-Nov-23 23:01N 34°42' W 121°04'1121.4
2017-Nov-23 22:30N 34°51' W 121°11'1121.3
2017-Nov-23 22:01N 34°60' W 121°17'1121.2
2017-Nov-23 21:30N 35°10' W 121°23'1121.2
2017-Nov-23 21:01N 35°18' W 121°30'1121.2
2017-Nov-23 20:31N 35°28' W 121°36'1121.2
2017-Nov-23 20:01N 35°37' W 121°42'1121.2
2017-Nov-23 19:30N 35°46' W 121°49'1021.0
2017-Nov-23 19:01N 35°55' W 121°55'1121.0
2017-Nov-23 18:31N 36°04' W 122°02'1121.1
2017-Nov-23 18:00N 36°13' W 122°09'1121.5
2017-Nov-23 17:31N 36°22' W 122°16'1121.4
2017-Nov-23 17:01N 36°32' W 122°22'1121.4
2017-Nov-23 16:31N 36°41' W 122°29'1121.4
2017-Nov-23 16:00N 36°51' W 122°34'1221.5
2017-Nov-23 15:27N 37°03' W 122°38'921.3
2017-Nov-23 15:00N 37°12' W 122°41'1021.0
2017-Nov-23 14:31N 37°22' W 122°44'1121.1
2017-Nov-23 14:01N 37°32' W 122°44'1020.4
2017-Nov-23 13:31N 37°42' W 122°42'612.8
2017-Nov-23 13:00N 37°47' W 122°36'816.0
2017-Nov-23 12:30N 37°50' W 122°27'612.2
2017-Nov-23 12:00N 37°48' W 122°20'1 2.7
2017-Nov-23 11:30N 37°48' W 122°18'0 0.0
2017-Nov-23 10:58N 37°48' W 122°18'0 0.0
2017-Nov-23 10:25N 37°48' W 122°18'0 0.0
2017-Nov-23 09:58N 37°48' W 122°18'0 0.0
2017-Nov-23 09:29N 37°48' W 122°18'0 0.0
2017-Nov-23 08:59N 37°48' W 122°18'0 0.0
2017-Nov-23 08:29N 37°48' W 122°18'0 0.0
2017-Nov-23 08:00N 37°48' W 122°18'0 0.0
2017-Nov-23 07:30N 37°48' W 122°18'0 0.0
2017-Nov-23 07:00N 37°48' W 122°18'0 0.0
2017-Nov-23 06:28N 37°48' W 122°18'0 0.0
2017-Nov-23 05:58N 37°48' W 122°18'0 0.0
2017-Nov-23 05:28N 37°48' W 122°18'0 0.0
2017-Nov-23 04:59N 37°48' W 122°18'0 0.0
2017-Nov-23 04:29N 37°48' W 122°18'0 0.0
2017-Nov-23 03:59N 37°48' W 122°18'0 0.0
2017-Nov-23 03:30N 37°48' W 122°18'0 0.0
2017-Nov-23 03:00N 37°48' W 122°18'0 0.0
2017-Nov-23 02:30N 37°48' W 122°18'0 0.0
2017-Nov-23 01:58N 37°48' W 122°18'0 0.0
2017-Nov-23 01:28N 37°48' W 122°18'0 0.0
2017-Nov-23 00:58N 37°48' W 122°18'0 0.0
2017-Nov-23 00:26N 37°48' W 122°18'0 0.0
2017-Nov-22 23:59N 37°48' W 122°18'0 0.0
2017-Nov-22 23:29N 37°48' W 122°18'0 0.0
2017-Nov-22 23:00N 37°48' W 122°18'0 0.0
2017-Nov-22 22:30N 37°48' W 122°18'0 0.0
2017-Nov-22 22:00N 37°48' W 122°18'0 0.0
2017-Nov-22 21:28N 37°48' W 122°18'0 0.0
2017-Nov-22 20:58N 37°48' W 122°18'0 0.0
2017-Nov-22 20:28N 37°48' W 122°18'0 0.0
2017-Nov-22 19:59N 37°48' W 122°18'0 0.0
2017-Nov-22 19:29N 37°48' W 122°18'  

Dump ship's entire track history